Location: Moscow
(55.7500°N, 37.5830°E)
Time: 16:41:14
(UTC+03:00)

Transit 2A - Pass Details

Date: 05 December 2021
Orbit: 591 x 967 km, 66.7° (Epoch: 21 January)

Event Time Altitude Azimuth Distance (km) Brightness Sun altitude
Rises 04:35:38 0° 287° (WNW) 3,542 - -33.0°
Reaches altitude 10° 04:38:26 10° 298° (WNW) 2,643 - -32.6°
Maximum altitude 04:43:54 31° 359° (N) 1,636 - -31.8°
Exits shadow 04:44:05 31° 2° (N) 1,638 7.7 -31.8°
Drops below altitude 10° 04:49:30 10° 60° (ENE) 2,715 9.6 -31.0°
Sets 04:52:25 0° 70° (ENE) 3,654 10.6 -30.6°
